Regional Weather Roundup
Issued by NWS Upton, NY

Current Version | Previous Version | Text Only | Print | Product List | Glossary On
Versions: 1 2 3 4 5 6 7 8 9 10 11 12 13 14 15 16 17 18 19 20 21 22 23 24 25 26 27 28 29 30 31 32 33 34 35 36 37 38 39 40 41 42 43 44 45 46 47 48 49 50
000 ASUS41 KOKX 170109 RWROKX REGIONAL WEATHER ROUNDUP NATIONAL WEATHER SERVICE NEW YORK NY 800 PM EST THU NOV 16 2017 NOTE: "FAIR" INDICATES FEW OR NO CLOUDS BELOW 12,000 FEET WITH NO SIGNIFICANT WEATHER AND/OR OBSTRUCTIONS TO VISIBILITY. NYZ071-072-176-178-NJZ106-104-170200- NEW YORK CITY METRO AREA CITY SKY/WX TMP DP RH WIND PRES REMARKS Central Park CLEAR 47 33 58 W9G23 29.88R Bronx Bot Gard N/A 46 32 57 W10 29.86F LaGuardia APRT PTCLDY 49 34 56 W16G29 29.86R Kennedy INTL PTCLDY 48 33 56 W21G32 29.87R Breezy Point N/A 46 N/A N/A W20G30 N/A Newark/Liberty PTCLDY 47 33 58 W15 29.87S Teterboro CLEAR 47 34 60 W13G18 29.86R $$ NYZ177-179-078>081-170200- LONG ISLAND NEW YORK CITY SKY/WX TMP DP RH WIND PRES REMARKS Jones Beach N/A 48 N/A N/A W22G28 N/A Matinecock PT N/A 50 N/A N/A W28G35 N/A Farmingdale CLEAR 48 33 56 W18G30 29.85R MacArthur/ISP PTCLDY 48 34 58 W14 29.83R Shirley CLEAR 48 35 60 W9G20 29.83R Mt Sinai Harb N/A N/A N/A N/A W13G21 N/A Westhampton CLEAR 45 34 65 W8 29.83R East Hampton FAIR 47 35 63 W13G20 29.80R Southold NOT AVBL Montauk N/A 51 39 63 W13G23 29.79R $$ NYZ052-065-067-170200- HUDSON VALLEY CITY SKY/WX TMP DP RH WIND PRES REMARKS White Plains PTCLDY 46 32 58 MISG 29.82S Larchmont Harb N/A 46 N/A N/A W15G21 N/A Croton On Huds N/A 48 N/A N/A W16 N/A Newburgh PTCLDY 43 37 81 W12 29.84R Montgomery PTCLDY 44 33 65 W9 29.83S Poughkeepsie PTCLDY 44 33 65 W7 29.82S Albany CLOUDY 44 34 67 NW12 29.80R $$ NJZ001-105-106-008-010-013-015-019>022-104-170200- NEW JERSEY CITY SKY/WX TMP DP RH WIND PRES REMARKS Newark/Liberty PTCLDY 47 33 58 W15 29.87S Teterboro CLEAR 47 34 60 W13G18 29.86R Caldwell CLEAR 46 35 65 W12 29.88R Somerville CLOUDY 47 33 58 W8 29.89R Linden FAIR 46 32 58 NW21 29.88R Perth Amboy N/A 46 N/A N/A W16G22 N/A Sussex MOCLDY 44 34 67 VRB6 29.87R Andover N/A 43 33 68 VRB3 29.88R Trenton CLEAR 47 30 51 W9 29.92R Millville CLEAR 49 33 54 NW16G24 29.97R Atlantic City CLEAR 49 33 54 NW15G24 29.94R Wrightstown CLEAR 47 31 54 W12G20 29.91R Toms River CLEAR 48 31 51 NW17G24 29.92R Belmar CLEAR 47 31 53 W17G23 29.90R $$ PAZ047>061-062-071-170200- EASTERN PENNSYLVANIA CITY SKY/WX TMP DP RH WIND PRES REMARKS Philadelphia PTCLDY 49 29 46 W20G26 29.98R Allentown MOCLDY 45 31 58 W16G23 29.93R Scranton CLOUDY 43 33 68 W15G23 29.90R $$ CTZ002-004>006-009-010-012-RIZ004-006-007-MAZ004-011-015-170200- SOUTHERN NEW ENGLAND IN CT CITY SKY/WX TMP DP RH WIND PRES REMARKS Bradley INTL MOCLDY 42 37 82 W8 29.77S Hartford MOCLDY 45 38 76 W8 29.78S Danbury CLEAR 45 34 65 W9 29.83R Wtrbury/Oxford CLEAR 43 34 70 W7 29.79S Norwalk Harbor N/A 46 N/A N/A W12 N/A Bridgeport PTCLDY 46 36 68 W10 29.82R Meriden CLEAR 45 35 68 NW6 29.79S New Haven CLEAR 47 36 65 W7 29.80S Chester FAIR 45 36 70 W6 29.78R Groton CLEAR 47 37 68 W8 29.77R Wilimantic PTCLDY 45 38 76 VRB3 29.77S IN RI CITY SKY/WX TMP DP RH WIND PRES REMARKS Providence PTCLDY 44 41 89 W7 29.74R Block Island CLEAR 48 38 68 NW14G25 29.77R Westerly CLEAR 47 39 74 VRB6 29.77R IN MA CITY SKY/WX TMP DP RH WIND PRES REMARKS Boston LGT RAIN 45 41 86 W18G24 29.71R Worcester PTCLDY 40 35 83 W10 29.71S WCI 33 Westfield CLOUDY 44 38 79 W8G18 29.76R Provincetown PTCLDY 47 43 86 W18G25 29.67F Nantucket LGT RAIN 47 45 93 W26G41 29.71R $$ ANZ330-335-338-340-345-350-353-355-170200- COASTAL MARINE OBSERVATIONS STATION/POSITION TIME SKY/WX TEMP WIND PRES VSBY WAVE AIR SEA DIR/SP/G HT/PER (UTC) (F) (DEG/KT/KT) (MB) (MI) (FT/S) NY HARB ENTRANCE 2350 52 58 280/ 23/ 29 1010.0 4/ 4 20 S FIRE ISLAND 2350 52 58 290/ 27/ 35 1009.8 8/ 6 GREAT SOUTH BAY 0030 48 46 280/ 14/ 16 N/A HUDSON CANYON 2350 55 61 310/ 29/ 35 1009.5 8/ 6 KINGS POINT 0030 49 53 330/ 18/ 22 1011.5 EXECUTION ROCKS 0030 50 250/ 19/ 25 N/A WESTERN LI SOUND 2349 51 280/ 19/ 25 N/A 1/ 3 CENTRAL LI SOUND 0030 51 290/ 21/ 27 N/A 3 ROBBINS REEF 0048 48 280/ 19/ 22 1011.9 $$ >>>>>>>>>>>>>>>>>>>>>>>>>>>> KEY <<<<<<<<<<<<<<<<<<<<<<<<<<< > < > SKY/WX - Sky Condition/Present Weather < > TMP - Temperature in Fahrenheit < > DP - Dew Point in Fahrenheit < > RH - Relative Humidity in Percent < > WIND - Direction (from) and Speed in MPH < > PRES - Mean Sea Level Pressure (inches of Hg) < > WCI - Wind Chill Index < > VSB - VISIBILITY IN MILES < > HX - HEAT INDEX < > TC - TEMPERATURE IN CELSIUS < > VRB - VARIABLE WIND DIRECTION < > < >>>>>>>>>>>>>>>>>>>>>>>>>>>> KEY <<<<<<<<<<<<<<<<<<<<<<<<<<<

USA.gov is the U.S. government's official web portal to all federal, state and local government web resources and services.